FW8022 Weather Reports


time (UTC)temp
C
wind
direction
speed
KPH
gust
KPH
rain 1hr
cm
rain 24hr
cm
rain mn
cm
humidity
%
barometer
mb
20260507124036 11 254 1.6 9.7 0.00 0.00 0.00 91 1017.6
20260507123536 11 290 3.2 9.7 0.00 0.00 0.00 91 1017.6
20260507123053 11 273 1.6 12.9 0.00 0.00 0.00 91 1017.5
20260507122536 11 287 1.6 12.9 0.00 0.00 0.00 91 1017.6
20260507122036 11 288 3.2 9.7 0.00 0.00 0.00 91 1017.6
20260507121548 11 332 3.2 6.4 0.00 0.00 0.00 91 1017.6
20260507121036 11 276 1.6 6.4 0.00 0.00 0.00 91 1017.6
20260507120536 11 250 1.6 6.4 0.00 0.00 0.00 91 1017.5
20260507120048 11 294 1.6 4.8 0.00 0.00 0.00 91 1017.5
20260507115536 11 291 1.6 6.4 0.00 0.00 0.00 91 1017.7
20260507115035 11 285 1.6 6.4 0.00 0.00 0.00 91 1017.6
20260507114547 11 288 1.6 6.4 0.00 0.00 0.00 91 1017.7
20260507114036 11 306 3.2 6.4 0.00 0.00 0.00 91 1017.7
20260507113536 11 294 1.6 6.4 0.00 0.00 0.00 91 1017.8
20260507113044 11 258 1.6 6.4 0.00 0.00 0.00 91 1017.7
20260507112535 11 263 1.6 6.4 0.00 0.00 0.00 91 1017.8
20260507112036 11 240 1.6 6.4 0.00 0.00 0.00 91 1017.8
20260507111549 11 269 3.2 6.4 0.00 0.00 0.00 91 1017.9
20260507111035 11 213 3.2 6.4 0.00 0.00 0.00 91 1017.9
20260507110535 11 244 1.6 8.0 0.00 0.00 0.00 91 1017.9
20260507110042 11 286 1.6 9.7 0.00 0.00 0.00 91 1017.8
20260507105536 11 284 3.2 9.7 0.00 0.00 0.00 91 1017.9
20260507105040 11 248 1.6 4.8 0.00 0.00 0.00 91 1017.8
20260507104555 11 286 1.6 11.3 0.00 0.00 0.00 91 1017.8
20260507104038 11 272 3.2 11.3 0.00 0.00 0.00 91 1017.8
20260507103535 11 281 1.6 8.0 0.00 0.00 0.00 91 1017.9
20260507103045 11 268 1.6 8.0 0.00 0.00 0.00 91 1017.8
20260507102536 11 279 1.6 6.4 0.00 0.00 0.00 91 1017.9
20260507102038 11 287 1.6 9.7 0.00 0.00 0.00 91 1017.9
20260507101549 11 228 3.2 9.7 0.00 0.00 0.00 91 1018.0
20260507101040 11 242 1.6 6.4 0.00 0.00 0.00 91 1017.8
20260507100537 11 290 3.2 8.0 0.00 0.00 0.00 91 1017.8
20260507100045 11 271 1.6 8.0 0.00 0.00 0.00 91 1017.8
20260507095538 11 288 1.6 6.4 0.00 0.00 0.00 91 1017.8
20260507095039 11 333 1.6 6.4 0.00 0.00 0.00 91 1017.9
20260507094547 11 267 3.2 6.4 0.00 0.00 0.00 91 1017.9
20260507094037 11 225 1.6 4.8 0.00 0.00 0.00 91 1018.0
20260507093537 11 237 1.6 4.8 0.00 0.00 0.00 91 1018.0
20260507093058 11 279 0.0 4.8 0.00 0.00 0.00 91 1018.1
20260507092537 11 240 1.6 6.4 0.00 0.00 0.00 91 1018.1
20260507092038 11 246 1.6 6.4 0.00 0.00 0.00 91 1018.2
20260507091554 11 277 3.2 6.4 0.00 0.00 0.00 91 1018.2
20260507091038 11 244 1.6 8.0 0.00 0.00 0.00 91 1018.2
20260507090536 11 244 1.6 9.7 0.00 0.00 0.00 91 1018.2
20260507090046 11 271 1.6 9.7 0.00 0.00 0.00 91 1018.2
20260507085538 11 279 3.2 8.0 0.00 0.00 0.00 91 1018.2
20260507085042 11 255 1.6 4.8 0.00 0.00 0.00 91 1018.2
20260507084551 11 242 1.6 4.8 0.00 0.00 0.00 91 1018.3
20260507084038 11 242 1.6 8.0 0.00 0.00 0.00 91 1018.4
20260507083538 11 259 3.2 8.0 0.00 0.00 0.00 91 1018.5
20260507083044 11 294 3.2 8.0 0.00 0.00 0.00 91 1018.4
20260507082537 11 0 1.6 8.0 0.00 0.00 0.00 91 1018.5
20260507082041 11 252 3.2 8.0 0.00 0.00 0.00 91 1018.5
20260507081543 11 297 1.6 9.7 0.00 0.00 0.00 91 1018.5
20260507081037 11 0 1.6 9.7 0.00 0.00 0.00 91 1018.5
20260507080538 11 283 1.6 6.4 0.00 0.00 0.00 92 1018.5
20260507080047 11 301 1.6 6.4 0.00 0.00 0.00 92 1018.5
20260507075537 11 264 1.6 8.0 0.00 0.00 0.00 91 1018.5
20260507075041 11 294 1.6 9.7 0.00 0.00 0.00 91 1018.5
20260507074549 11 277 3.2 9.7 0.00 0.00 0.00 91 1018.5
20260507074038 11 245 3.2 6.4 0.00 0.00 0.00 92 1018.4
20260507073539 11 282 1.6 6.4 0.00 0.00 0.00 92 1018.5
20260507073052 11 283 1.6 6.4 0.00 0.00 0.00 92 1018.3
20260507072540 11 294 1.6 6.4 0.00 0.00 0.00 92 1018.4
20260507072040 11 238 1.6 6.4 0.00 0.00 0.00 92 1018.4
20260507071551 11 252 3.2 9.7 0.00 0.00 0.00 92 1018.4
20260507071038 11 246 3.2 9.7 0.00 0.00 0.00 92 1018.4
20260507070538 11 241 3.2 9.7 0.00 0.00 0.00 92 1018.4
20260507070051 11 264 3.2 9.7 0.00 0.00 0.00 92 1018.4
20260507065540 11 283 3.2 9.7 0.00 0.00 0.00 92 1018.4
20260507065037 11 287 1.6 9.7 0.00 0.00 0.00 92 1018.3
20260507064548 11 279 3.2 9.7 0.00 0.00 0.00 92 1018.3
20260507064038 11 294 1.6 6.4 0.00 0.00 0.00 92 1018.4
20260507063539 11 284 1.6 9.7 0.00 0.00 0.00 92 1018.4
20260507063049 11 279 3.2 9.7 0.00 0.00 0.00 91 1018.4
20260507062537 11 279 3.2 9.7 0.00 0.00 0.00 91 1018.5
20260507062037 11 246 1.6 9.7 0.00 0.00 0.00 92 1018.4
20260507061544 11 256 3.2 9.7 0.00 0.00 0.00 92 1018.4
20260507061037 11 244 3.2 9.7 0.00 0.00 0.00 92 1018.4
20260507060537 11 254 3.2 11.3 0.00 0.00 0.00 92 1018.4
20260507060051 11 275 1.6 11.3 0.00 0.00 0.00 91 1018.4
20260507055539 11 278 1.6 12.9 0.00 0.00 0.00 91 1018.4
20260507055037 11 271 3.2 12.9 0.00 0.00 0.00 91 1018.3
20260507054547 11 292 3.2 11.3 0.00 0.00 0.00 91 1018.4
20260507054037 11 259 3.2 8.0 0.00 0.00 0.00 91 1018.4
20260507053538 11 289 1.6 6.4 0.00 0.00 0.00 91 1018.4
20260507053054 11 280 1.6 11.3 0.00 0.00 0.00 91 1018.4
20260507052538 11 321 4.8 11.3 0.00 0.00 0.00 91 1018.5
20260507052038 11 329 4.8 11.3 0.00 0.00 0.00 91 1018.5
20260507051548 11 280 3.2 11.3 0.00 0.00 0.00 91 1018.5
20260507051041 11 275 4.8 11.3 0.00 0.00 0.00 91 1018.6
20260507050539 11 244 3.2 11.3 0.00 0.00 0.00 91 1018.5
20260507050044 11 275 4.8 14.5 0.00 0.00 0.00 91 1018.6
20260507045541 12 268 4.8 14.5 0.00 0.00 0.00 91 1018.5
20260507045038 12 302 3.2 11.3 0.00 0.00 0.00 91 1018.6
20260507044555 12 289 3.2 11.3 0.00 0.00 0.00 91 1018.6
20260507044037 12 279 4.8 11.3 0.00 0.00 0.00 91 1018.6
20260507043537 12 275 3.2 12.9 0.00 0.00 0.00 91 1018.5
20260507043048 12 269 3.2 12.9 0.00 0.00 0.00 91 1018.5
20260507042537 12 284 3.2 12.9 0.00 0.00 0.00 90 1018.5
20260507042040 12 346 3.2 12.9 0.00 0.00 0.00 90 1018.6
20260507041545 12 325 3.2 12.9 0.00 0.00 0.00 91 1018.5
20260507041038 12 320 4.8 12.9 0.00 0.00 0.00 90 1018.5
20260507040541 12 280 4.8 12.9 0.00 0.00 0.00 90 1018.5
20260507040045 12 295 3.2 12.9 0.00 0.00 0.00 90 1018.5
20260507035537 12 297 3.2 11.3 0.00 0.00 0.00 90 1018.5
20260507035037 12 301 3.2 11.3 0.00 0.00 0.00 90 1018.4
20260507034545 12 257 3.2 16.1 0.00 0.00 0.00 90 1018.4
20260507034037 12 301 3.2 16.1 0.00 0.00 0.00 90 1018.3
20260507033539 12 284 4.8 12.9 0.00 0.00 0.00 90 1018.4
20260507033044 12 323 4.8 14.5 0.00 0.00 0.00 90 1018.4
20260507032539 12 330 3.2 14.5 0.00 0.00 0.00 90 1018.3
20260507032040 12 295 4.8 14.5 0.00 0.00 0.00 90 1018.3
20260507031549 12 299 3.2 11.3 0.00 0.00 0.00 90 1018.2
20260507031038 12 313 3.2 11.3 0.00 0.00 0.00 89 1018.2
20260507030538 12 270 3.2 9.7 0.00 0.00 0.00 89 1018.2
20260507030050 12 282 3.2 16.1 0.00 0.00 0.00 89 1018.1
20260507025536 12 266 3.2 16.1 0.00 0.00 0.00 89 1018.1
20260507025038 12 279 4.8 12.9 0.00 0.00 0.00 89 1018.1
20260507024549 12 292 1.6 12.9 0.00 0.00 0.00 89 1018.1
20260507024038 12 315 3.2 11.3 0.00 0.00 0.00 89 1018.0
20260507023538 12 297 3.2 12.9 0.00 0.00 0.00 89 1018.1
20260507023050 12 276 4.8 12.9 0.00 0.00 0.00 88 1018.1
20260507022537 12 284 4.8 12.9 0.00 0.00 0.00 88 1018.1
20260507022038 12 286 3.2 11.3 0.00 0.00 0.00 88 1018.1
20260507021551 13 275 3.2 11.3 0.00 0.00 0.00 87 1018.0
20260507021040 13 290 1.6 17.7 0.00 0.00 0.00 87 1018.1
20260507020537 13 265 3.2 17.7 0.00 0.00 0.00 87 1018.1
20260507020051 13 301 6.4 17.7 0.00 0.00 0.00 87 1018.2
20260507015536 13 272 3.2 14.5 0.00 0.00 0.00 87 1018.2
20260507015037 13 330 6.4 12.9 0.00 0.00 0.00 86 1018.2
20260507014554 13 248 4.8 17.7 0.00 0.00 0.00 86 1018.3
20260507014037 13 294 4.8 17.7 0.00 0.00 0.00 86 1018.2
20260507013541 13 321 4.8 16.1 0.00 0.00 0.00 86 1018.2
20260507013056 13 290 6.4 16.1 0.00 0.00 0.00 85 1018.3
20260507012537 13 286 6.4 16.1 0.00 0.00 0.00 85 1018.2
20260507012037 13 308 8.0 16.1 0.00 0.00 0.00 85 1018.2
20260507011545 13 284 4.8 14.5 0.00 0.00 0.00 85 1018.2
20260507011037 13 299 6.4 14.5 0.00 0.00 0.00 84 1018.3
20260507010537 13 314 4.8 14.5 0.00 0.00 0.00 85 1018.2
20260507010053 13 275 6.4 14.5 0.00 0.00 0.00 85 1018.2
20260507005538 13 300 4.8 12.9 0.00 0.00 0.00 85 1018.2
20260507005037 13 335 4.8 17.7 0.00 0.00 0.00 85 1018.2
20260507004540 13 287 3.2 17.7 0.00 0.00 0.00 85 1018.2
20260507004037 13 289 6.4 17.7 0.00 0.00 0.00 85 1018.2
20260507003540 13 268 3.2 12.9 0.00 0.00 0.00 85 1018.2
20260507003047 13 340 4.8 16.1 0.00 0.00 0.00 86 1018.1
20260507002539 13 304 4.8 16.1 0.00 0.00 0.00 86 1018.2
20260507002037 13 295 6.4 16.1 0.00 0.00 0.00 85 1018.2
20260507001545 13 291 4.8 16.1 0.00 0.00 0.00 86 1018.3
20260507001036 13 294 6.4 16.1 0.00 0.00 0.00 85 1018.3
20260507000540 13 280 3.2 12.9 0.00 0.00 0.00 85 1018.3
20260507000051 13 5 4.8 12.9 0.00 0.00 0.00 85 1018.2
20260506235537 13 281 3.2 12.9 0.00 0.00 0.00 85 1018.3
20260506235036 13 289 4.8 12.9 0.00 0.00 0.00 85 1018.2
20260506234543 13 320 4.8 12.9 0.00 0.00 0.00 85 1018.2
20260506234039 13 323 3.2 16.1 0.00 0.00 0.00 85 1018.2
20260506233540 13 290 3.2 16.1 0.00 0.00 0.00 85 1018.3
20260506233042 13 257 4.8 14.5 0.00 0.00 0.00 85 1018.3
20260506232537 13 257 6.4 14.5 0.00 0.00 0.00 84 1018.3
20260506232037 13 296 4.8 16.1 0.00 0.00 0.00 85 1018.3
20260506231544 13 300 6.4 16.1 0.00 0.00 0.00 84 1018.3
20260506231037 14 267 4.8 12.9 0.00 0.00 0.00 84 1018.3
20260506230536 14 306 4.8 12.9 0.00 0.00 0.00 84 1018.3
20260506230050 14 336 3.2 14.5 0.00 0.00 0.00 84 1018.4
20260506225537 14 0 3.2 14.5 0.00 0.00 0.00 85 1018.4
20260506225037 13 255 6.4 14.5 0.00 0.00 0.00 85 1018.5
20260506224559 14 336 3.2 11.3 0.00 0.00 0.00 85 1018.5
20260506224037 14 282 4.8 12.9 0.00 0.00 0.00 85 1018.6
20260506223536 14 304 3.2 12.9 0.00 0.00 0.00 85 1018.5
20260506223044 14 315 4.8 16.1 0.00 0.00 0.00 85 1018.6
20260506222537 14 316 3.2 16.1 0.00 0.00 0.00 85 1018.6
20260506222037 13 288 4.8 17.7 0.00 0.00 0.00 85 1018.7
20260506221543 14 248 6.4 17.7 0.00 0.00 0.00 85 1018.7
20260506221036 14 277 6.4 14.5 0.00 0.00 0.00 85 1018.8
20260506220536 14 313 3.2 12.9 0.00 0.00 0.00 85 1018.9
20260506220045 14 294 3.2 16.1 0.00 0.00 0.00 85 1019.0
20260506215537 14 257 6.4 16.1 0.00 0.00 0.00 85 1019.0
20260506215036 14 271 6.4 12.9 0.00 0.00 0.00 83 1019.0
20260506214559 15 321 6.4 12.9 0.00 0.00 0.00 82 1018.9
20260506214037 15 322 4.8 12.9 0.00 0.00 0.00 83 1018.9
20260506213538 15 351 4.8 12.9 0.00 0.00 0.00 83 1018.9
20260506213042 15 267 4.8 12.9 0.00 0.00 0.00 82 1019.1
20260506212537 15 317 6.4 12.9 0.00 0.00 0.00 82 1019.1
20260506212037 15 360 3.2 12.9 0.00 0.00 0.00 83 1019.0
20260506211546 15 281 4.8 16.1 0.00 0.00 0.00 82 1019.0
20260506211036 15 284 3.2 16.1 0.00 0.00 0.00 84 1019.0
20260506210537 14 292 6.4 16.1 0.00 0.00 0.00 83 1018.9
20260506210044 14 292 4.8 14.5 0.00 0.00 0.00 84 1019.0
20260506205536 15 292 4.8 12.9 0.00 0.00 0.00 82 1019.1
20260506205036 15 293 3.2 12.9 0.00 0.00 0.00 84 1019.0
20260506204544 14 334 4.8 12.9 0.00 0.00 0.00 84 1019.2
20260506204038 15 308 3.2 11.3 0.00 0.00 0.00 82 1019.2
20260506203537 15 327 3.2 11.3 0.00 0.00 0.00 84 1019.3
20260506203047 15 307 4.8 11.3 0.00 0.00 0.00 83 1019.3
20260506202536 15 317 4.8 11.3 0.00 0.00 0.00 82 1019.3
20260506202037 15 281 3.2 12.9 0.00 0.00 0.00 82 1019.3
20260506201544 15 299 4.8 12.9 0.00 0.00 0.00 84 1019.4
20260506201037 15 284 3.2 9.7 0.00 0.00 0.00 83 1019.4
20260506200538 15 237 1.6 9.7 0.00 0.00 0.00 83 1019.5
20260506200048 15 281 3.2 9.7 0.00 0.00 0.00 82 1019.5
20260506195537 15 287 3.2 11.3 0.00 0.00 0.00 83 1019.5
20260506195037 15 313 3.2 11.3 0.00 0.00 0.00 83 1019.6
20260506194558 15 9 4.8 9.7 0.00 0.00 0.00 83 1019.6
20260506194044 15 319 3.2 9.7 0.00 0.00 0.00 81 1019.6
20260506193537 15 290 3.2 11.3 0.00 0.00 0.00 82 1019.7
20260506193043 15 319 3.2 11.3 0.00 0.00 0.00 82 1019.6
20260506192536 15 341 3.2 8.0 0.00 0.00 0.00 84 1019.6
20260506192036 15 319 3.2 9.7 0.00 0.00 0.00 82 1019.8
20260506191552 15 5 3.2 11.3 0.00 0.00 0.00 84 1019.8
20260506191036 15 290 3.2 11.3 0.00 0.00 0.00 83 1019.8
20260506190538 15 288 3.2 9.7 0.00 0.00 0.00 82 1019.9
20260506190044 15 243 3.2 9.7 0.00 0.00 0.00 80 1019.8
20260506185538 15 328 3.2 11.3 0.00 0.00 0.00 82 1019.8
20260506185038 15 237 3.2 11.3 0.00 0.00 0.00 83 1019.8
20260506184551 15 295 3.2 9.7 0.00 0.00 0.00 82 1019.7
20260506184038 15 267 3.2 9.7 0.00 0.00 0.00 83 1019.8
20260506183537 15 269 3.2 6.4 0.00 0.00 0.00 85 1019.9
20260506183047 14 284 3.2 6.4 0.00 0.00 0.00 84 1019.9
20260506182536 14 308 1.6 8.0 0.00 0.00 0.00 84 1020.0
20260506182036 14 246 3.2 8.0 0.00 0.00 0.00 83 1019.9
20260506181547 14 314 3.2 6.4 0.00 0.00 0.00 83 1019.9
20260506181037 14 292 3.2 8.0 0.00 0.00 0.00 83 1019.9
20260506180537 14 322 3.2 9.7 0.00 0.00 0.00 82 1019.8
20260506180054 15 283 3.2 9.7 0.00 0.00 0.00 81 1019.8
20260506175536 15 284 3.2 6.4 0.00 0.00 0.00 84 1019.7
20260506175033 14 246 1.6 6.4 0.00 0.00 0.00 83 1019.8
20260506174542 14 293 3.2 8.0 0.00 0.00 0.00 83 1019.7
20260506174033 14 252 3.2 8.0 0.00 0.00 0.00 82 1019.7
20260506173535 14 288 3.2 8.0 0.00 0.00 0.00 83 1019.7
20260506173048 14 281 3.2 9.7 0.00 0.00 0.00 83 1019.7
20260506172533 14 298 3.2 9.7 0.00 0.00 0.00 84 1019.7
20260506172033 14 278 3.2 9.7 0.00 0.00 0.00 83 1019.7
20260506171556 14 241 1.6 6.4 0.00 0.00 0.00 84 1019.7
20260506171040 14 298 3.2 6.4 0.00 0.00 0.00 84 1019.7
20260506170540 14 355 1.6 4.8 0.00 0.00 0.00 84 1019.8
20260506170049 14 293 1.6 6.4 0.00 0.00 0.00 85 1019.7
20260506165539 13 298 1.6 6.4 0.00 0.00 0.00 85 1019.7
20260506165037 13 340 1.6 9.7 0.00 0.00 0.00 85 1019.7
20260506164558 13 289 3.2 9.7 0.00 0.00 0.00 85 1019.7
20260506164036 13 263 1.6 6.4 0.00 0.00 0.00 85 1019.6
20260506163536 13 317 3.2 6.4 0.00 0.00 0.00 84 1019.7
20260506163054 13 346 1.6 9.7 0.00 0.00 0.00 84 1019.7
20260506162533 13 13 1.6 9.7 0.00 0.00 0.00 85 1019.7
20260506162033 13 293 1.6 6.4 0.00 0.00 0.00 85 1019.7
20260506161604 13 0 1.6 4.8 0.00 0.00 0.00 85 1019.7
20260506161033 13 0 3.2 6.4 0.00 0.00 0.00 85 1019.6
20260506160533 13 318 1.6 6.4 0.00 0.00 0.00 86 1019.7
20260506160052 13 338 1.6 4.8 0.00 0.00 0.00 86 1019.6
20260506155533 13 279 1.6 4.8 0.00 0.05 0.00 86 1019.7
20260506155036 13 346 0.0 4.8 0.00 0.05 0.00 85 1019.6
20260506154610 13 0 1.6 4.8 0.00 0.05 0.00 86 1019.6
20260506154033 13 295 0.0 4.8 0.00 0.05 0.00 86 1019.5
20260506153536 13 291 1.6 4.8 0.00 0.05 0.00 86 1019.5
20260506153045 13 36 1.6 4.8 0.00 0.05 0.00 86 1019.5
20260506152537 12 310 0.0 4.8 0.00 0.05 0.00 87 1019.5
20260506152039 12 276 1.6 4.8 0.00 0.05 0.00 87 1019.5
20260506151545 13 295 1.6 3.2 0.00 0.05 0.00 88 1019.5
20260506151038 12 331 0.0 3.2 0.00 0.05 0.00 88 1019.5
20260506150541 12 0 0.0 4.8 0.00 0.05 0.00 88 1019.5
20260506150053 12 0 0.0 4.8 0.00 0.05 0.00 88 1019.4
20260506145543 12 288 1.6 6.4 0.00 0.05 0.00 87 1019.4
20260506145039 12 0 0.0 6.4 0.00 0.05 0.00 87 1019.4
20260506144555 12 0 0.0 6.4 0.00 0.05 0.00 88 1019.4
20260506144038 12 0 0.0 3.2 0.00 0.05 0.00 88 1019.3
20260506143538 12 313 0.0 4.8 0.00 0.05 0.00 87 1019.3
20260506143041 12 306 0.0 4.8 0.00 0.05 0.00 88 1019.3
20260506142540 12 0 1.6 4.8 0.00 0.05 0.00 87 1019.3
20260506142038 12 59 0.0 4.8 0.00 0.05 0.00 88 1019.2
20260506141549 12 317 0.0 3.2 0.00 0.05 0.00 88 1019.2
20260506141038 12 5 0.0 4.8 0.00 0.05 0.00 88 1019.1
20260506140541 12 0 1.6 4.8 0.00 0.05 0.00 87 1019.0
20260506140057 12 5 0.0 4.8 0.00 0.05 0.00 87 1019.0
20260506135537 12 0 0.0 4.8 0.00 0.05 0.00 87 1018.9
20260506135037 12 0 1.6 4.8 0.00 0.05 0.00 87 1018.9
20260506134552 12 311 0.0 3.2 0.00 0.05 0.00 87 1018.8
20260506134038 12 336 0.0 3.2 0.00 0.05 0.00 86 1018.8
20260506133537 12 328 0.0 4.8 0.00 0.05 0.00 86 1018.8
20260506133054 13 29 0.0 4.8 0.00 0.05 0.00 86 1018.8
20260506132538 12 0 0.0 6.4 0.00 0.05 0.00 85 1018.7
20260506132042 12 290 0.0 6.4 0.00 0.05 0.00 84 1018.5
20260506131543 12 290 3.2 6.4 0.00 0.05 0.00 84 1018.6
20260506131039 12 318 0.0 3.2 0.00 0.05 0.00 84 1018.5
20260506130540 12 0 0.0 4.8 0.00 0.05 0.00 84 1018.4
20260506130050 12 273 1.6 4.8 0.00 0.05 0.00 84 1018.5
20260506125538 12 287 1.6 6.4 0.00 0.05 0.00 85 1018.5
20260506125039 12 336 1.6 8.0 0.00 0.05 0.00 84 1018.5
20260506124542 12 299 1.6 8.0 0.00 0.05 0.00 84 1018.4